TimeEDT,TemperatureF,Dew PointF,Humidity,Sea Level PressureIn,VisibilityMPH,Wind Direction,Wind SpeedMPH,Gust SpeedMPH,PrecipitationIn,Events,Conditions,WindDirDegrees,DateUTC
12:51 AM,60.1,60.1,100,30.19,4.0,Calm,Calm,-,N/A,,Overcast,0,2012-10-04 04:51:00
1:51 AM,60.1,60.1,100,30.19,5.0,Calm,Calm,-,N/A,,Overcast,0,2012-10-04 05:51:00
2:51 AM,59.0,59.0,100,30.18,3.0,Calm,Calm,-,N/A,,Overcast,0,2012-10-04 06:51:00
3:51 AM,60.1,60.1,100,30.18,6.0,Calm,Calm,-,0.01,,Overcast,0,2012-10-04 07:51:00
4:51 AM,60.1,59.0,96,30.18,8.0,ESE,3.5,-,N/A,,Overcast,120,2012-10-04 08:51:00
5:51 AM,60.1,59.0,96,30.18,7.0,SSE,4.6,-,N/A,,Overcast,150,2012-10-04 09:51:00
6:51 AM,59.0,59.0,100,30.19,7.0,Calm,Calm,-,N/A,,Overcast,0,2012-10-04 10:51:00
7:51 AM,60.1,59.0,96,30.19,10.0,South,3.5,-,N/A,,Overcast,170,2012-10-04 11:51:00
8:51 AM,60.1,59.0,96,30.17,10.0,SSE,5.8,-,N/A,,Overcast,150,2012-10-04 12:51:00
9:51 AM,61.0,60.1,97,30.18,8.0,South,4.6,-,N/A,,Overcast,170,2012-10-04 13:51:00
10:51 AM,61.0,60.1,97,30.18,10.0,South,6.9,-,N/A,,Overcast,170,2012-10-04 14:51:00
11:51 AM,60.8,59.0,94,30.17,10.0,South,5.8,-,N/A,,Overcast,190,2012-10-04 15:51:00
12:51 PM,61.0,60.1,97,30.14,10.0,South,5.8,-,0.00,,Overcast,180,2012-10-04 16:51:00
1:51 PM,61.0,60.1,97,30.12,10.0,Calm,Calm,-,0.00,Rain,Light Rain,0,2012-10-04 17:51:00
2:51 PM,62.1,60.1,93,30.12,10.0,South,6.9,-,0.00,,Overcast,190,2012-10-04 18:51:00
3:51 PM,62.1,61.0,96,30.09,10.0,South,3.5,-,N/A,,Overcast,180,2012-10-04 19:51:00
4:51 PM,62.1,61.0,96,30.08,10.0,SSE,10.4,-,N/A,,Overcast,160,2012-10-04 20:51:00
5:08 PM,62.6,60.8,94,30.07,10.0,South,10.4,-,N/A,,Overcast,170,2012-10-04 21:08:00
5:16 PM,62.6,60.8,94,30.07,10.0,South,9.2,-,N/A,,Overcast,170,2012-10-04 21:16:00
5:51 PM,62.1,61.0,96,30.08,10.0,SE,6.9,-,N/A,,Overcast,140,2012-10-04 21:51:00
6:06 PM,60.8,60.8,100,30.07,10.0,South,5.8,-,0.00,Rain,Light Rain,170,2012-10-04 22:06:00
6:46 PM,62.6,60.8,94,30.08,9.0,NW,5.8,-,0.01,Rain,Light Rain,310,2012-10-04 22:46:00
6:51 PM,62.1,60.1,93,30.09,4.0,NW,4.6,-,0.04,Rain,Heavy Rain,320,2012-10-04 22:51:00
7:04 PM,60.8,59.0,94,30.08,8.0,Calm,Calm,-,0.01,Rain,Light Rain,0,2012-10-04 23:04:00
7:41 PM,60.8,59.0,94,30.08,10.0,Calm,Calm,-,0.01,Rain,Light Rain,0,2012-10-04 23:41:00
7:51 PM,61.0,57.9,90,30.07,8.0,Calm,Calm,-,0.02,Rain,Rain,0,2012-10-04 23:51:00
8:51 PM,59.0,59.0,100,30.09,10.0,Calm,Calm,-,0.00,,Overcast,0,2012-10-05 00:51:00
9:34 PM,59.0,57.2,94,30.08,10.0,SW,3.5,-,N/A,,Mostly Cloudy,230,2012-10-05 01:34:00
9:51 PM,57.2,55.4,94,30.08,8.0,Calm,Calm,-,N/A,,Partly Cloudy,0,2012-10-05 01:51:00
10:03 PM,55.4,55.4,100,30.08,1.5,Calm,Calm,-,N/A,,Clear,0,2012-10-05 02:03:00
10:15 PM,53.6,53.6,100,30.08,1.0,South,3.5,-,N/A,,Clear,180,2012-10-05 02:15:00
10:20 PM,53.6,53.6,100,30.08,1.5,South,3.5,-,N/A,,Clear,180,2012-10-05 02:20:00
10:25 PM,53.6,53.6,100,30.08,3.0,Calm,Calm,-,N/A,,Clear,0,2012-10-05 02:25:00
10:41 PM,51.8,51.8,100,30.08,1.8,Calm,Calm,-,N/A,,Clear,0,2012-10-05 02:41:00
10:43 PM,51.8,51.8,100,30.08,1.0,Calm,Calm,-,N/A,,Clear,0,2012-10-05 02:43:00
10:51 PM,51.8,51.8,100,30.08,0.5,Calm,Calm,-,N/A,Fog,Fog,0,2012-10-05 02:51:00
10:59 PM,51.8,51.8,100,30.08,0.8,Calm,Calm,-,N/A,,Mist,0,2012-10-05 02:59:00
11:47 PM,51.8,51.8,100,30.07,1.2,Calm,Calm,-,N/A,,Partly Cloudy,0,2012-10-05 03:47:00
11:51 PM,51.1,51.1,100,30.08,2.5,Calm,Calm,-,N/A,,Clear,0,2012-10-05 03:51:00
11:58 PM,51.8,51.8,100,30.06,4.0,Calm,Calm,-,N/A,,Clear,0,2012-10-05 03:58:00